星链-35712(STARLINK-35712)

导读

STARLINK-35712是美国SpaceX公司星链星座的一颗低轨通信卫星,于2025年10月28日发射入轨。它运行在近地轨道,是星链全球卫星互联网星座的组成部分,旨在为全球偏远、缺乏地面基础设施的区域提供高速、低延迟的宽带互联网服务,同时也可支持商业航运、航空移动通信等场景,进一步扩展星链星座的服务覆盖与网络能力。

Basic Information
目录编号:
66215
目录名称:
STARLINK-35712
国际标识:
2025-244K
轨道中心:
EARTH
卫星名称:
星链-35712
卫星全名:
星链-35712(STARLINK-35712)
卫星状态:
在轨 (已飞行312 天)
发射日期:
2025-10-28 UTC
国别 :
美国 (US)
星等 :
--
Orbit Information
数据来源 国际轨道数据
星历时间: 2026-09-05T08:38:26+0800
17小时前
查看轨道信息
半长轴: 6840.835km
偏心率: 0.0000881
轨道倾角: 53.158°
近地点辐角 82.235°
升交点赤经 114.299°
平近点角 277.875°
近地点: 462.095km
远地点: 463.301km
周期: 93.848分钟
每日圈数: 15.344019
Detailed Information
固有亮度:
5
最大亮度:
2.5
卫星平台:
Starlink V1.0
覆盖范围:
全球
运营商:
太空探索技术公司
运营商所在国:
美国
制造商(研发单位):
太空探索技术公司
制造商所在国:
美国
使用方式:
暂无
Satellite Introduction
Starlink 计划是 SpaceX 推出的全球卫星互联网项目,通过发射低轨道卫星,为全球尤其是偏远地区提供高速、低延迟的互联网服务。自 2019 年起,Starlink 已部署数千颗卫星,旨在缩小全球数字鸿沟,推动互联网普及。该项目还为军事、航空等行业提供通信支持,带来广泛经济效益。
2D Orbit Map
3D Orbit Map
Orbit Altitude Analysis Chart
Orbit Inclination Analysis Chart
Orbit Comprehensive Analysis Chart
View Comprehensive Chart
Conjunction Data List
Event ID Objects TCA Miss Dist (km) Collision Risk Probability Collision Risk Index (CRI) Action
CDM_260908-063005-896706-621521
2026-09-08T
06:30:16+0000
1.084 km
极远距离
1.188829E-5 中风险 0.57
CDM_260907-125004-004206-621521
2026-09-07T
12:50:32+0000
1.887 km
极远距离
3.335471E-6 低风险 0.45
CDM_260903-082405-364006-621521
2026-09-03T
08:24:40+0000
1.454 km
极远距离
2.110764E-6 低风险 0.41
CDM_260903-073705-364006-621521
2026-09-03T
07:37:46+0000
1.827 km
极远距离
1.118774E-6 低风险 0.36